Year,Month,Day,Hour,Minute,Value (Times are PST for temperature in C)
2015,04,17,00,00,8.40
2015,04,17,00,01,8.40
2015,04,17,00,02,8.40
2015,04,17,00,03,8.40
2015,04,17,00,04,8.40
2015,04,17,00,05,8.40
2015,04,17,00,06,8.40
2015,04,17,00,07,8.40
2015,04,17,00,08,8.40
2015,04,17,00,09,8.30
2015,04,17,00,10,8.30
2015,04,17,00,11,8.30
2015,04,17,00,12,8.30
2015,04,17,00,13,8.30
2015,04,17,00,14,8.20
2015,04,17,00,15,8.20
2015,04,17,00,16,8.20
2015,04,17,00,17,8.20
2015,04,17,00,18,8.20
2015,04,17,00,19,8.20
2015,04,17,00,20,8.20
2015,04,17,00,21,8.20
2015,04,17,00,22,8.20
2015,04,17,00,23,8.20
2015,04,17,00,24,8.20
2015,04,17,00,25,8.20
2015,04,17,00,26,8.20
2015,04,17,00,27,8.20
2015,04,17,00,28,8.20
2015,04,17,00,29,8.10
2015,04,17,00,30,8.10
2015,04,17,00,31,8.10
2015,04,17,00,32,8.10
2015,04,17,00,33,8.10
2015,04,17,00,34,8.10
2015,04,17,00,35,8.10
2015,04,17,00,36,8.10
2015,04,17,00,37,8.10
2015,04,17,00,38,8.10
2015,04,17,00,39,8.10
2015,04,17,00,40,8.10
2015,04,17,00,41,8.10
2015,04,17,00,42,8.10
2015,04,17,00,43,8.10
2015,04,17,00,44,8.10
2015,04,17,00,45,8.10
2015,04,17,00,46,8.10
2015,04,17,00,47,8.10
2015,04,17,00,48,8.10
2015,04,17,00,49,8.00
2015,04,17,00,50,8.00
2015,04,17,00,51,8.00
2015,04,17,00,52,8.00
2015,04,17,00,53,8.00
2015,04,17,00,54,7.90
2015,04,17,00,55,7.90
2015,04,17,00,56,7.90
2015,04,17,00,57,7.90
2015,04,17,00,58,7.90
2015,04,17,00,59,7.80
2015,04,17,01,00,7.80
2015,04,17,01,01,7.80
2015,04,17,01,02,7.80
2015,04,17,01,03,7.80
2015,04,17,01,04,7.80
2015,04,17,01,05,7.80
2015,04,17,01,06,7.80
2015,04,17,01,07,7.80
2015,04,17,01,08,7.80
2015,04,17,01,09,7.70
2015,04,17,01,10,7.70
2015,04,17,01,11,7.70
2015,04,17,01,12,7.70
2015,04,17,01,13,7.70
2015,04,17,01,14,7.70
2015,04,17,01,15,7.70
2015,04,17,01,16,7.70
2015,04,17,01,17,7.70
2015,04,17,01,18,7.70
2015,04,17,01,19,7.60
2015,04,17,01,20,7.60
2015,04,17,01,21,7.60
2015,04,17,01,22,7.60
2015,04,17,01,23,7.60
2015,04,17,01,24,7.60
2015,04,17,01,25,7.60
2015,04,17,01,26,7.60
2015,04,17,01,27,7.60
2015,04,17,01,28,7.50
2015,04,17,01,29,7.50
2015,04,17,01,30,7.50
2015,04,17,01,31,7.40
2015,04,17,01,32,7.40
2015,04,17,01,33,7.40
2015,04,17,01,34,7.30
2015,04,17,01,35,7.30
2015,04,17,01,36,7.30
2015,04,17,01,37,7.30
2015,04,17,01,38,7.20
2015,04,17,01,39,7.20
2015,04,17,01,40,7.20
2015,04,17,01,41,7.20
2015,04,17,01,42,7.20
2015,04,17,01,43,7.10
2015,04,17,01,44,7.10
2015,04,17,01,45,7.10
2015,04,17,01,46,7.00
2015,04,17,01,47,7.00
2015,04,17,01,48,7.00
2015,04,17,01,49,6.90
2015,04,17,01,50,6.90
2015,04,17,01,51,6.90
2015,04,17,01,52,6.90
2015,04,17,01,53,6.90
2015,04,17,01,54,6.90
2015,04,17,01,55,6.80
2015,04,17,01,56,6.80
2015,04,17,01,57,6.80
2015,04,17,01,58,6.80
2015,04,17,01,59,6.80
2015,04,17,02,00,6.80
2015,04,17,02,01,6.80
2015,04,17,02,02,6.70
2015,04,17,02,03,6.70
2015,04,17,02,04,6.70
2015,04,17,02,05,6.70
2015,04,17,02,06,6.70
2015,04,17,02,07,6.70
2015,04,17,02,08,6.70
2015,04,17,02,09,6.70
2015,04,17,02,10,6.70
2015,04,17,02,11,6.60
2015,04,17,02,12,6.60
2015,04,17,02,13,6.60
2015,04,17,02,14,6.60
2015,04,17,02,15,6.60
2015,04,17,02,16,6.60
2015,04,17,02,17,6.60
2015,04,17,02,18,6.60
2015,04,17,02,19,6.60
2015,04,17,02,20,6.60
2015,04,17,02,21,6.60
2015,04,17,02,22,6.60
2015,04,17,02,23,6.60
2015,04,17,02,24,6.60
2015,04,17,02,25,6.70
2015,04,17,02,26,6.60
2015,04,17,02,27,6.60
2015,04,17,02,28,6.60
2015,04,17,02,29,6.70
2015,04,17,02,30,6.70
2015,04,17,02,31,6.60
2015,04,17,02,32,6.60
2015,04,17,02,33,6.60
2015,04,17,02,34,6.60
2015,04,17,02,35,6.60
2015,04,17,02,36,6.60
2015,04,17,02,37,6.70
2015,04,17,02,38,6.70
2015,04,17,02,39,6.70
2015,04,17,02,40,6.70
2015,04,17,02,41,6.70
2015,04,17,02,42,6.70
2015,04,17,02,43,6.70
2015,04,17,02,44,6.70
2015,04,17,02,45,6.70
2015,04,17,02,46,6.70
2015,04,17,02,47,6.70
2015,04,17,02,48,6.70
2015,04,17,02,49,6.70
2015,04,17,02,50,6.80
2015,04,17,02,51,6.80
2015,04,17,02,52,6.80
2015,04,17,02,53,6.80
2015,04,17,02,54,6.80
2015,04,17,02,55,6.90
2015,04,17,02,56,6.90
2015,04,17,02,57,6.90
2015,04,17,02,58,6.90
2015,04,17,02,59,7.00
2015,04,17,03,00,7.00
2015,04,17,03,01,7.00
2015,04,17,03,02,7.00
2015,04,17,03,03,7.10
2015,04,17,03,04,7.10
2015,04,17,03,05,7.10
2015,04,17,03,06,7.10
2015,04,17,03,07,7.10
2015,04,17,03,08,7.10
2015,04,17,03,09,7.10
2015,04,17,03,10,7.10
2015,04,17,03,11,7.20
2015,04,17,03,12,7.10
2015,04,17,03,13,7.10
2015,04,17,03,14,7.10
2015,04,17,03,15,7.10
2015,04,17,03,16,7.10
2015,04,17,03,17,7.10
2015,04,17,03,18,7.10
2015,04,17,03,19,7.10
2015,04,17,03,20,7.10
2015,04,17,03,21,7.10
2015,04,17,03,22,7.10
2015,04,17,03,23,7.10
2015,04,17,03,24,7.00
2015,04,17,03,25,7.00
2015,04,17,03,26,7.00
2015,04,17,03,27,7.00
2015,04,17,03,28,7.00
2015,04,17,03,29,7.00
2015,04,17,03,30,7.00
2015,04,17,03,31,7.00
2015,04,17,03,32,7.00
2015,04,17,03,33,7.00
2015,04,17,03,34,7.00
2015,04,17,03,35,7.00
2015,04,17,03,36,7.00
2015,04,17,03,37,7.00
2015,04,17,03,38,7.00
2015,04,17,03,39,6.90
2015,04,17,03,40,6.90
2015,04,17,03,41,6.90
2015,04,17,03,42,6.90
2015,04,17,03,43,6.90
2015,04,17,03,44,7.00
2015,04,17,03,45,7.00
2015,04,17,03,46,7.00
2015,04,17,03,47,7.00
2015,04,17,03,48,7.00
2015,04,17,03,49,7.10
2015,04,17,03,50,7.00
2015,04,17,03,51,7.00
2015,04,17,03,52,7.10
2015,04,17,03,53,7.10
2015,04,17,03,54,7.10
2015,04,17,03,55,7.10
2015,04,17,03,56,7.10
2015,04,17,03,57,7.10
2015,04,17,03,58,7.10
2015,04,17,03,59,7.10
2015,04,17,04,00,7.10
2015,04,17,04,01,7.10
2015,04,17,04,02,7.10
2015,04,17,04,03,7.10
2015,04,17,04,04,7.10
2015,04,17,04,05,7.10
2015,04,17,04,06,7.10
2015,04,17,04,07,7.10
2015,04,17,04,08,7.10
2015,04,17,04,09,7.10
2015,04,17,04,10,7.10
2015,04,17,04,11,7.10
2015,04,17,04,12,7.10
2015,04,17,04,13,7.10
2015,04,17,04,14,7.10
2015,04,17,04,15,7.10
2015,04,17,04,16,7.10
2015,04,17,04,17,7.10
2015,04,17,04,18,7.00
2015,04,17,04,19,7.00
2015,04,17,04,20,7.00
2015,04,17,04,21,7.00
2015,04,17,04,22,7.00
2015,04,17,04,23,7.00
2015,04,17,04,24,7.00
2015,04,17,04,25,7.00
2015,04,17,04,26,6.90
2015,04,17,04,27,6.90
2015,04,17,04,28,6.90
2015,04,17,04,29,6.90
2015,04,17,04,30,6.90
2015,04,17,04,31,6.90
2015,04,17,04,32,6.90
2015,04,17,04,33,6.90
2015,04,17,04,34,6.90
2015,04,17,04,35,6.90
2015,04,17,04,36,6.90
2015,04,17,04,37,6.90
2015,04,17,04,38,6.80
2015,04,17,04,39,6.80
2015,04,17,04,40,6.80
2015,04,17,04,41,6.80
2015,04,17,04,42,6.80
2015,04,17,04,43,6.80
2015,04,17,04,44,6.80
2015,04,17,04,45,6.80
2015,04,17,04,46,6.80
2015,04,17,04,47,6.90
2015,04,17,04,48,6.90
2015,04,17,04,49,6.90
2015,04,17,04,50,6.90
2015,04,17,04,51,6.90
2015,04,17,04,52,6.90
2015,04,17,04,53,6.90
2015,04,17,04,54,6.80
2015,04,17,04,55,6.90
2015,04,17,04,56,6.90
2015,04,17,04,57,6.90
2015,04,17,04,58,6.90
2015,04,17,04,59,6.90
2015,04,17,05,00,6.90
2015,04,17,05,01,6.90
2015,04,17,05,02,6.90
2015,04,17,05,03,6.90
2015,04,17,05,04,6.80
2015,04,17,05,05,6.80
2015,04,17,05,06,6.80
2015,04,17,05,07,6.80
2015,04,17,05,08,6.80
2015,04,17,05,09,6.80
2015,04,17,05,10,6.80
2015,04,17,05,11,6.80
2015,04,17,05,12,6.80
2015,04,17,05,13,6.80
2015,04,17,05,14,6.80
2015,04,17,05,15,6.80
2015,04,17,05,16,6.80
2015,04,17,05,17,6.80
2015,04,17,05,18,6.80
2015,04,17,05,19,6.80
2015,04,17,05,20,6.80
2015,04,17,05,21,6.80
2015,04,17,05,22,6.80
2015,04,17,05,23,6.80
2015,04,17,05,24,6.80
2015,04,17,05,25,6.80
2015,04,17,05,26,6.80
2015,04,17,05,27,6.90
2015,04,17,05,28,7.00
2015,04,17,05,29,7.10
2015,04,17,05,30,7.20
2015,04,17,05,31,7.40
2015,04,17,05,32,7.60
2015,04,17,05,33,7.70
2015,04,17,05,34,7.80
2015,04,17,05,35,7.90
2015,04,17,05,36,8.00
2015,04,17,05,37,8.10
2015,04,17,05,38,8.20
2015,04,17,05,39,8.20
2015,04,17,05,40,8.30
2015,04,17,05,41,8.30
2015,04,17,05,42,8.40
2015,04,17,05,43,8.40
2015,04,17,05,44,8.40
2015,04,17,05,45,8.40
2015,04,17,05,46,8.40
2015,04,17,05,47,8.40
2015,04,17,05,48,8.40
2015,04,17,05,49,8.30
2015,04,17,05,50,8.30
2015,04,17,05,51,8.30
2015,04,17,05,52,8.20
2015,04,17,05,53,8.20
2015,04,17,05,54,8.20
2015,04,17,05,55,8.20
2015,04,17,05,56,8.20
2015,04,17,05,57,8.10
2015,04,17,05,58,8.10
2015,04,17,05,59,8.10
2015,04,17,06,00,8.10
2015,04,17,06,01,8.10
2015,04,17,06,02,8.00
2015,04,17,06,03,8.00
2015,04,17,06,04,8.00
2015,04,17,06,05,8.00
2015,04,17,06,06,7.90
2015,04,17,06,07,7.90
2015,04,17,06,08,7.90
2015,04,17,06,09,7.90
2015,04,17,06,10,7.90
2015,04,17,06,11,7.90
2015,04,17,06,12,7.90
2015,04,17,06,13,7.90
2015,04,17,06,14,7.90
2015,04,17,06,15,7.90
2015,04,17,06,16,7.90
2015,04,17,06,17,7.90
2015,04,17,06,18,7.90
2015,04,17,06,19,7.90
2015,04,17,06,20,7.90
2015,04,17,06,21,8.00
2015,04,17,06,22,8.00
2015,04,17,06,23,8.00
2015,04,17,06,24,8.00
2015,04,17,06,25,8.10
2015,04,17,06,26,8.10
2015,04,17,06,27,8.10
2015,04,17,06,28,8.10
2015,04,17,06,29,8.10
2015,04,17,06,30,8.10
2015,04,17,06,31,8.10
2015,04,17,06,32,8.10
2015,04,17,06,33,8.00
2015,04,17,06,34,8.00
2015,04,17,06,35,8.00
2015,04,17,06,36,8.00
2015,04,17,06,37,7.90
2015,04,17,06,38,7.90
2015,04,17,06,39,7.90
2015,04,17,06,40,7.90
2015,04,17,06,41,7.90
2015,04,17,06,42,7.90
2015,04,17,06,43,7.90
2015,04,17,06,44,7.90
2015,04,17,06,45,7.90
2015,04,17,06,46,7.90
2015,04,17,06,47,7.90
2015,04,17,06,48,7.90
2015,04,17,06,49,7.90
2015,04,17,06,50,7.90
2015,04,17,06,51,7.90
2015,04,17,06,52,7.90
2015,04,17,06,53,7.90
2015,04,17,06,54,7.90
2015,04,17,06,55,7.90
2015,04,17,06,56,7.90
2015,04,17,06,57,7.90
2015,04,17,06,58,7.90
2015,04,17,06,59,7.90
2015,04,17,07,00,7.90
2015,04,17,07,01,7.90
2015,04,17,07,02,7.90
2015,04,17,07,03,7.90
2015,04,17,07,04,7.90
2015,04,17,07,05,7.90
2015,04,17,07,06,7.90
2015,04,17,07,07,7.90
2015,04,17,07,08,8.00
2015,04,17,07,09,8.00
2015,04,17,07,10,8.00
2015,04,17,07,11,8.10
2015,04,17,07,12,8.10
2015,04,17,07,13,8.10
2015,04,17,07,14,8.10
2015,04,17,07,15,8.00
2015,04,17,07,16,8.10
2015,04,17,07,17,8.10
2015,04,17,07,18,8.10
2015,04,17,07,19,8.10
2015,04,17,07,20,8.10
2015,04,17,07,21,8.10
2015,04,17,07,22,8.10
2015,04,17,07,23,8.10
2015,04,17,07,24,8.10
2015,04,17,07,25,8.10
2015,04,17,07,26,8.10
2015,04,17,07,27,8.10
2015,04,17,07,28,8.10
2015,04,17,07,29,8.10
2015,04,17,07,30,8.10
2015,04,17,07,31,8.10
2015,04,17,07,32,8.10
2015,04,17,07,33,8.10
2015,04,17,07,34,8.10
2015,04,17,07,35,8.20
2015,04,17,07,36,8.20
2015,04,17,07,37,8.20
2015,04,17,07,38,8.20
2015,04,17,07,39,8.20
2015,04,17,07,40,8.20
2015,04,17,07,41,8.20
2015,04,17,07,42,8.20
2015,04,17,07,43,8.20
2015,04,17,07,44,8.20
2015,04,17,07,45,8.30
2015,04,17,07,46,8.30
2015,04,17,07,47,8.30
2015,04,17,07,48,8.30
2015,04,17,07,49,8.30
2015,04,17,07,50,8.30
2015,04,17,07,51,8.40
2015,04,17,07,52,8.40
2015,04,17,07,53,8.40
2015,04,17,07,54,8.40
2015,04,17,07,55,8.40
2015,04,17,07,56,8.40
2015,04,17,07,57,8.40
2015,04,17,07,58,8.40
2015,04,17,07,59,8.40
2015,04,17,08,00,8.40
2015,04,17,08,01,8.50
2015,04,17,08,02,8.50
2015,04,17,08,03,8.50
2015,04,17,08,04,8.50
2015,04,17,08,05,8.60
2015,04,17,08,06,8.60
2015,04,17,08,07,8.60
2015,04,17,08,08,8.70
2015,04,17,08,09,8.70
2015,04,17,08,10,8.80
2015,04,17,08,11,8.80
2015,04,17,08,12,8.90
2015,04,17,08,13,8.90
2015,04,17,08,14,8.90
2015,04,17,08,15,9.00
2015,04,17,08,16,9.00
2015,04,17,08,17,9.10
2015,04,17,08,18,9.10
2015,04,17,08,19,9.20
2015,04,17,08,20,9.20
2015,04,17,08,21,9.30
2015,04,17,08,22,9.40
2015,04,17,08,23,9.40
2015,04,17,08,24,9.50
2015,04,17,08,25,9.60
2015,04,17,08,26,9.60
2015,04,17,08,27,9.70
2015,04,17,08,28,9.80
2015,04,17,08,29,9.80
2015,04,17,08,30,9.90
2015,04,17,08,31,9.90
2015,04,17,08,32,9.90
2015,04,17,08,33,10.00
2015,04,17,08,34,10.00
2015,04,17,08,35,10.00
2015,04,17,08,36,10.10
2015,04,17,08,37,10.10
2015,04,17,08,38,10.10
2015,04,17,08,39,10.10
2015,04,17,08,40,10.10
2015,04,17,08,41,10.10
2015,04,17,08,42,10.10
2015,04,17,08,43,10.10
2015,04,17,08,44,10.20
2015,04,17,08,45,10.20
2015,04,17,08,46,10.20
2015,04,17,08,47,10.20
2015,04,17,08,48,10.20
2015,04,17,08,49,10.20
2015,04,17,08,50,10.20
2015,04,17,08,51,10.20
2015,04,17,08,52,10.20
2015,04,17,08,53,10.20
2015,04,17,08,54,10.20
2015,04,17,08,55,10.30
2015,04,17,08,56,10.30
2015,04,17,08,57,10.30
2015,04,17,08,58,10.30
2015,04,17,08,59,10.40
2015,04,17,09,00,10.40
2015,04,17,09,01,10.50
2015,04,17,09,02,10.60
2015,04,17,09,03,10.60
2015,04,17,09,04,10.60
2015,04,17,09,05,10.70
2015,04,17,09,06,10.70
2015,04,17,09,07,10.80
2015,04,17,09,08,10.80
2015,04,17,09,09,10.90
2015,04,17,09,10,10.90
2015,04,17,09,11,11.00
2015,04,17,09,12,11.10
2015,04,17,09,13,11.20
2015,04,17,09,14,11.30
2015,04,17,09,15,11.40
2015,04,17,09,16,11.50
2015,04,17,09,17,11.60
2015,04,17,09,18,11.70
2015,04,17,09,19,11.70
2015,04,17,09,20,11.80
2015,04,17,09,21,11.90
2015,04,17,09,22,11.90
2015,04,17,09,23,12.00
2015,04,17,09,24,12.10
2015,04,17,09,25,12.10
2015,04,17,09,26,12.20
2015,04,17,09,27,12.30
2015,04,17,09,28,12.30
2015,04,17,09,29,12.40
2015,04,17,09,30,12.40
2015,04,17,09,31,12.50
2015,04,17,09,32,12.50
2015,04,17,09,33,12.60
2015,04,17,09,34,12.70
2015,04,17,09,35,12.80
2015,04,17,09,36,12.90
2015,04,17,09,37,13.00
2015,04,17,09,38,13.00
2015,04,17,09,39,13.10
2015,04,17,09,40,13.20
2015,04,17,09,41,13.30
2015,04,17,09,42,13.30
2015,04,17,09,43,13.40
2015,04,17,09,44,13.50
2015,04,17,09,45,13.60
2015,04,17,09,46,13.80
2015,04,17,09,47,13.80
2015,04,17,09,48,13.90
2015,04,17,09,49,14.00
2015,04,17,09,50,14.00
2015,04,17,09,51,14.10
2015,04,17,09,52,14.10
2015,04,17,09,53,14.10
2015,04,17,09,54,14.10
2015,04,17,09,55,14.10
2015,04,17,09,56,14.10
2015,04,17,09,57,14.20
2015,04,17,09,58,14.20
2015,04,17,09,59,14.30
2015,04,17,10,00,14.30
2015,04,17,10,01,14.40
2015,04,17,10,02,14.50
2015,04,17,10,03,14.60
2015,04,17,10,04,14.60
2015,04,17,10,05,14.60
2015,04,17,10,06,14.60
2015,04,17,10,07,14.60
2015,04,17,10,08,14.60
2015,04,17,10,09,14.50
2015,04,17,10,10,14.50
2015,04,17,10,11,14.40
2015,04,17,10,12,14.30
2015,04,17,10,13,14.30
2015,04,17,10,14,14.20
2015,04,17,10,15,14.20
2015,04,17,10,16,14.20
2015,04,17,10,17,14.10
2015,04,17,10,18,14.10
2015,04,17,10,19,14.10
2015,04,17,10,20,14.10
2015,04,17,10,21,14.10
2015,04,17,10,22,14.10
2015,04,17,10,23,14.10
2015,04,17,10,24,14.20
2015,04,17,10,25,14.20
2015,04,17,10,26,14.20
2015,04,17,10,27,14.20
2015,04,17,10,28,14.30
2015,04,17,10,29,14.30
2015,04,17,10,30,14.40
2015,04,17,10,31,14.40
2015,04,17,10,32,14.40
2015,04,17,10,33,14.50
2015,04,17,10,34,14.50
2015,04,17,10,35,14.50
2015,04,17,10,36,14.50
2015,04,17,10,37,14.40
2015,04,17,10,38,14.40
2015,04,17,10,39,14.40
2015,04,17,10,40,14.40
2015,04,17,10,41,14.40
2015,04,17,10,42,14.40
2015,04,17,10,43,14.40
2015,04,17,10,44,14.40
2015,04,17,10,45,14.40
2015,04,17,10,46,14.40
2015,04,17,10,47,14.40
2015,04,17,10,48,14.40
2015,04,17,10,49,14.40
2015,04,17,10,50,14.40
2015,04,17,10,51,14.40
2015,04,17,10,52,14.40
2015,04,17,10,53,14.40
2015,04,17,10,54,14.40
2015,04,17,10,55,14.40
2015,04,17,10,56,14.50
2015,04,17,10,57,14.40
2015,04,17,10,58,14.40
2015,04,17,10,59,14.40
2015,04,17,11,00,14.40
2015,04,17,11,01,14.50
2015,04,17,11,02,14.50
2015,04,17,11,03,14.60
2015,04,17,11,04,14.60
2015,04,17,11,05,14.70
2015,04,17,11,06,14.70
2015,04,17,11,07,14.70
2015,04,17,11,08,14.80
2015,04,17,11,09,14.80
2015,04,17,11,10,14.80
2015,04,17,11,11,14.80
2015,04,17,11,12,14.80
2015,04,17,11,13,14.90
2015,04,17,11,14,14.90
2015,04,17,11,15,15.00
2015,04,17,11,16,15.00
2015,04,17,11,17,15.00
2015,04,17,11,18,15.00
2015,04,17,11,19,15.00
2015,04,17,11,20,15.10
2015,04,17,11,21,15.10
2015,04,17,11,22,15.10
2015,04,17,11,23,15.10
2015,04,17,11,24,15.10
2015,04,17,11,25,15.20
2015,04,17,11,26,15.20
2015,04,17,11,27,15.20
2015,04,17,11,28,15.30
2015,04,17,11,29,15.30
2015,04,17,11,30,15.30
2015,04,17,11,31,15.30
2015,04,17,11,32,15.30
2015,04,17,11,33,15.30
2015,04,17,11,34,15.30
2015,04,17,11,35,15.40
2015,04,17,11,36,15.40
2015,04,17,11,37,15.40
2015,04,17,11,38,15.40
2015,04,17,11,39,15.30
2015,04,17,11,40,15.40
2015,04,17,11,41,15.40
2015,04,17,11,42,15.40
2015,04,17,11,43,15.40
2015,04,17,11,44,15.40
2015,04,17,11,45,15.40
2015,04,17,11,46,15.50
2015,04,17,11,47,15.60
2015,04,17,11,48,15.60
2015,04,17,11,49,15.60
2015,04,17,11,50,15.60
2015,04,17,11,51,15.60
2015,04,17,11,52,15.70
2015,04,17,11,53,15.70
2015,04,17,11,54,15.80
2015,04,17,11,55,15.80
2015,04,17,11,56,15.90
2015,04,17,11,57,16.00
2015,04,17,11,58,16.10
2015,04,17,11,59,16.10
2015,04,17,12,00,16.20
2015,04,17,12,01,16.20
2015,04,17,12,02,16.20
2015,04,17,12,03,16.20
2015,04,17,12,04,16.20
2015,04,17,12,05,16.20
2015,04,17,12,06,16.30
2015,04,17,12,07,16.30
2015,04,17,12,08,16.30
2015,04,17,12,09,16.30
2015,04,17,12,10,16.30
2015,04,17,12,11,16.30
2015,04,17,12,12,16.40
2015,04,17,12,13,16.40
2015,04,17,12,14,16.40
2015,04,17,12,15,16.50
2015,04,17,12,16,16.60
2015,04,17,12,17,16.60
2015,04,17,12,18,16.60
2015,04,17,12,19,16.70
2015,04,17,12,20,16.70
2015,04,17,12,21,16.80
2015,04,17,12,22,16.80
2015,04,17,12,23,16.80
2015,04,17,12,24,16.70
2015,04,17,12,25,16.70
2015,04,17,12,26,16.70
2015,04,17,12,27,16.70
2015,04,17,12,28,16.70
2015,04,17,12,29,16.70
2015,04,17,12,30,16.70
2015,04,17,12,31,16.70
2015,04,17,12,32,16.70
2015,04,17,12,33,16.70
2015,04,17,12,34,16.70
2015,04,17,12,35,16.70
2015,04,17,12,36,16.70
2015,04,17,12,37,16.80
2015,04,17,12,38,16.80
2015,04,17,12,39,16.90
2015,04,17,12,40,17.00
2015,04,17,12,41,17.10
2015,04,17,12,42,17.10
2015,04,17,12,43,17.10
2015,04,17,12,44,17.10
2015,04,17,12,45,17.10
2015,04,17,12,46,17.10
2015,04,17,12,47,17.20
2015,04,17,12,48,17.20
2015,04,17,12,49,17.20
2015,04,17,12,50,17.10
2015,04,17,12,51,17.10
2015,04,17,12,52,17.10
2015,04,17,12,53,17.20
2015,04,17,12,54,17.20
2015,04,17,12,55,17.20
2015,04,17,12,56,17.30
2015,04,17,12,57,17.30
2015,04,17,12,58,17.40
2015,04,17,12,59,17.50
2015,04,17,13,00,17.50
2015,04,17,13,01,17.40
2015,04,17,13,02,17.40
2015,04,17,13,03,17.40
2015,04,17,13,04,17.40
2015,04,17,13,05,17.40
2015,04,17,13,06,17.50
2015,04,17,13,07,17.40
2015,04,17,13,08,17.40
2015,04,17,13,09,17.40
2015,04,17,13,10,17.40
2015,04,17,13,11,17.50
2015,04,17,13,12,17.50
2015,04,17,13,13,17.60
2015,04,17,13,14,17.60
2015,04,17,13,15,17.70
2015,04,17,13,16,17.70
2015,04,17,13,17,17.60
2015,04,17,13,18,17.50
2015,04,17,13,19,17.40
2015,04,17,13,20,17.40
2015,04,17,13,21,17.40
2015,04,17,13,22,17.40
2015,04,17,13,23,17.50
2015,04,17,13,24,17.40
2015,04,17,13,25,17.40
2015,04,17,13,26,17.40
2015,04,17,13,27,17.40
2015,04,17,13,28,17.40
2015,04,17,13,29,17.50
2015,04,17,13,30,17.50
2015,04,17,13,31,17.60
2015,04,17,13,32,17.60
2015,04,17,13,33,17.60
2015,04,17,13,34,17.60
2015,04,17,13,35,17.50
2015,04,17,13,36,17.50
2015,04,17,13,37,17.40
2015,04,17,13,38,17.40
2015,04,17,13,39,17.40
2015,04,17,13,40,17.40
2015,04,17,13,41,17.40
2015,04,17,13,42,17.50
2015,04,17,13,43,17.50
2015,04,17,13,44,17.40
2015,04,17,13,45,17.30
2015,04,17,13,46,17.30
2015,04,17,13,47,17.30
2015,04,17,13,48,17.30
2015,04,17,13,49,17.30
2015,04,17,13,50,17.40
2015,04,17,13,51,17.50
2015,04,17,13,52,17.60
2015,04,17,13,53,17.60
2015,04,17,13,54,17.60
2015,04,17,13,55,17.60
2015,04,17,13,56,17.60
2015,04,17,13,57,17.70
2015,04,17,13,58,17.70
2015,04,17,13,59,17.70
2015,04,17,14,00,17.80
2015,04,17,14,01,17.80
2015,04,17,14,02,17.70
2015,04,17,14,03,17.70
2015,04,17,14,04,17.70
2015,04,17,14,05,17.70
2015,04,17,14,06,17.60
2015,04,17,14,07,17.50
2015,04,17,14,08,17.50
2015,04,17,14,09,17.50
2015,04,17,14,10,17.60
2015,04,17,14,11,17.60
2015,04,17,14,12,17.60
2015,04,17,14,13,17.60
2015,04,17,14,14,17.70
2015,04,17,14,15,17.70
2015,04,17,14,16,17.70
2015,04,17,14,17,17.80
2015,04,17,14,18,17.80
2015,04,17,14,19,17.80
2015,04,17,14,20,17.90
2015,04,17,14,21,18.00
2015,04,17,14,22,18.10
2015,04,17,14,23,18.10
2015,04,17,14,24,18.10
2015,04,17,14,25,18.00
2015,04,17,14,26,18.00
2015,04,17,14,27,17.90
2015,04,17,14,28,17.90
2015,04,17,14,29,18.00
2015,04,17,14,30,18.00
2015,04,17,14,31,18.10
2015,04,17,14,32,18.10
2015,04,17,14,33,18.10
2015,04,17,14,34,18.10
2015,04,17,14,35,18.10
2015,04,17,14,36,18.10
2015,04,17,14,37,18.20
2015,04,17,14,38,18.10
2015,04,17,14,39,18.10
2015,04,17,14,40,18.20
2015,04,17,14,41,18.20
2015,04,17,14,42,18.30
2015,04,17,14,43,18.30
2015,04,17,14,44,18.40
2015,04,17,14,45,18.40
2015,04,17,14,46,18.40
2015,04,17,14,47,18.50
2015,04,17,14,48,18.50
2015,04,17,14,49,18.60
2015,04,17,14,50,18.50
2015,04,17,14,51,18.50
2015,04,17,14,52,18.50
2015,04,17,14,53,18.50
2015,04,17,14,54,18.50
2015,04,17,14,55,18.40
2015,04,17,14,56,18.40
2015,04,17,14,57,18.40
2015,04,17,14,58,18.40
2015,04,17,14,59,18.40
2015,04,17,15,00,18.40
2015,04,17,15,01,18.30
2015,04,17,15,02,18.30
2015,04,17,15,03,18.30
2015,04,17,15,04,18.30
2015,04,17,15,05,18.30
2015,04,17,15,06,18.20
2015,04,17,15,07,18.20
2015,04,17,15,08,18.20
2015,04,17,15,09,18.10
2015,04,17,15,10,18.10
2015,04,17,15,11,18.20
2015,04,17,15,12,18.20
2015,04,17,15,13,18.20
2015,04,17,15,14,18.10
2015,04,17,15,15,18.10
2015,04,17,15,16,18.10
2015,04,17,15,17,18.10
2015,04,17,15,18,18.00
2015,04,17,15,19,18.00
2015,04,17,15,20,17.90
2015,04,17,15,21,17.90
2015,04,17,15,22,17.80
2015,04,17,15,23,17.80
2015,04,17,15,24,17.80
2015,04,17,15,25,17.80
2015,04,17,15,26,17.80
2015,04,17,15,27,17.80
2015,04,17,15,28,17.80
2015,04,17,15,29,17.80
2015,04,17,15,30,17.80
2015,04,17,15,31,17.80
2015,04,17,15,32,17.90
2015,04,17,15,33,17.90
2015,04,17,15,34,18.00
2015,04,17,15,35,18.00
2015,04,17,15,36,18.10
2015,04,17,15,37,18.10
2015,04,17,15,38,18.10
2015,04,17,15,39,18.20
2015,04,17,15,40,18.20
2015,04,17,15,41,18.20
2015,04,17,15,42,18.20
2015,04,17,15,43,18.20
2015,04,17,15,44,18.20
2015,04,17,15,45,18.10
2015,04,17,15,46,18.10
2015,04,17,15,47,18.00
2015,04,17,15,48,17.90
2015,04,17,15,49,17.90
2015,04,17,15,50,17.90
2015,04,17,15,51,18.00
2015,04,17,15,52,17.90
2015,04,17,15,53,17.90
2015,04,17,15,54,17.90
2015,04,17,15,55,17.90
2015,04,17,15,56,18.00
2015,04,17,15,57,18.00
2015,04,17,15,58,18.00
2015,04,17,15,59,17.90
2015,04,17,16,00,17.90
2015,04,17,16,01,17.90
2015,04,17,16,02,17.90
2015,04,17,16,03,17.80
2015,04,17,16,04,17.80
2015,04,17,16,05,17.80
2015,04,17,16,06,17.80
2015,04,17,16,07,17.80
2015,04,17,16,08,17.80
2015,04,17,16,09,17.70
2015,04,17,16,10,17.70
2015,04,17,16,11,17.80
2015,04,17,16,12,17.80
2015,04,17,16,13,17.90
2015,04,17,16,14,17.90
2015,04,17,16,15,17.90
2015,04,17,16,16,17.90
2015,04,17,16,17,17.90
2015,04,17,16,18,18.00
2015,04,17,16,19,18.00
2015,04,17,16,20,18.00
2015,04,17,16,21,18.10
2015,04,17,16,22,18.10
2015,04,17,16,23,18.10
2015,04,17,16,24,18.10
2015,04,17,16,25,18.20
2015,04,17,16,26,18.20
2015,04,17,16,27,18.20
2015,04,17,16,28,18.20
2015,04,17,16,29,18.10
2015,04,17,16,30,18.10
2015,04,17,16,31,18.00
2015,04,17,16,32,18.00
2015,04,17,16,33,17.90
2015,04,17,16,34,17.90
2015,04,17,16,35,17.90
2015,04,17,16,36,17.90
2015,04,17,16,37,18.00
2015,04,17,16,38,17.90
2015,04,17,16,39,17.80
2015,04,17,16,40,17.80
2015,04,17,16,41,17.80
2015,04,17,16,42,17.90
2015,04,17,16,43,17.90
2015,04,17,16,44,17.90
2015,04,17,16,45,17.90
2015,04,17,16,46,17.80
2015,04,17,16,47,17.70
2015,04,17,16,48,17.70
2015,04,17,16,49,17.80
2015,04,17,16,50,17.80
2015,04,17,16,51,17.90
2015,04,17,16,52,17.90
2015,04,17,16,53,18.00
2015,04,17,16,54,18.00
2015,04,17,16,55,18.00
2015,04,17,16,56,18.00
2015,04,17,16,57,18.00
2015,04,17,16,58,17.90
2015,04,17,16,59,17.80
2015,04,17,17,00,17.80
2015,04,17,17,01,17.80
2015,04,17,17,02,17.90
2015,04,17,17,03,17.90
2015,04,17,17,04,17.90
2015,04,17,17,05,18.00
2015,04,17,17,06,17.90
2015,04,17,17,07,17.90
2015,04,17,17,08,17.90
2015,04,17,17,09,17.80
2015,04,17,17,10,17.80
2015,04,17,17,11,17.80
2015,04,17,17,12,17.80
2015,04,17,17,13,17.80
2015,04,17,17,14,17.80
2015,04,17,17,15,17.80
2015,04,17,17,16,17.80
2015,04,17,17,17,17.80
2015,04,17,17,18,17.90
2015,04,17,17,19,17.90
2015,04,17,17,20,18.00
2015,04,17,17,21,18.00
2015,04,17,17,22,18.10
2015,04,17,17,23,18.10
2015,04,17,17,24,18.10
2015,04,17,17,25,18.10
2015,04,17,17,26,18.00
2015,04,17,17,27,17.90
2015,04,17,17,28,17.90
2015,04,17,17,29,17.90
2015,04,17,17,30,17.90
2015,04,17,17,31,17.80
2015,04,17,17,32,17.80
2015,04,17,17,33,17.70
2015,04,17,17,34,17.70
2015,04,17,17,35,17.60
2015,04,17,17,36,17.50
2015,04,17,17,37,17.40
2015,04,17,17,38,17.30
2015,04,17,17,39,17.20
2015,04,17,17,40,17.10
2015,04,17,17,41,17.00